Hourly Weather Washington

Today, 23 April, Friday

Time Temperature Precipitation Wind Pressure Humidity
00:00 +3°C° 0 mm 2 mps 757 mmHg 65%
01:00 +2°C° 0 mm 2 mps 757 mmHg 68%
02:00 +2°C° 0 mm 2 mps 758 mmHg 70%
03:00 +2°C° 0 mm 2 mps 758 mmHg 73%
04:00 +1°C° 0 mm 2 mps 758 mmHg 75%
05:00 +3°C° 0 mm 2 mps 758 mmHg 70%
06:00 +4°C° 0 mm 2 mps 758 mmHg 66%
07:00 +5°C° 0 mm 2 mps 759 mmHg 61%
08:00 +7°C° 0 mm 3 mps 759 mmHg 53%
09:00 +9°C° 0 mm 3 mps 759 mmHg 46%
10:00 +11°C° 0 mm 4 mps 759 mmHg 38%
11:00 +13°C° 0 mm 4 mps 758 mmHg 36%
12:00 +14°C° 0 mm 4 mps 758 mmHg 34%
13:00 +17°C° 0 mm 4 mps 757 mmHg 32%
14:00 +16°C° 0 mm 3 mps 757 mmHg 36%
15:00 +16°C° 0 mm 3 mps 756 mmHg 39%
16:00 +16°C° 0 mm 3 mps 756 mmHg 43%
17:00 +13°C° 0 mm 3 mps 756 mmHg 48%
18:00 +12°C° 0 mm 2 mps 757 mmHg 53%
19:00 +10°C° 0 mm 2 mps 757 mmHg 58%
20:00 +9°C° 0 mm 2 mps 757 mmHg 60%
21:00 +8°C° 0 mm 2 mps 757 mmHg 61%
22:00 +8°C° 0 mm 1 mps 758 mmHg 63%
23:00 +8°C° 0 mm 1 mps 757 mmHg 64%

Tomorrow, 24 April, Saturday

Time Temperature Precipitation Wind Pressure Humidity
00:00 +7°C° 0 mm 1 mps 757 mmHg 64%
01:00 +7°C° 0 mm 1 mps 757 mmHg 65%
02:00 +6°C° 0 mm 1 mps 757 mmHg 65%
03:00 +6°C° 0 mm 1 mps 757 mmHg 66%
04:00 +6°C° 0 mm 1 mps 757 mmHg 66%
05:00 +6°C° 0 mm 0 mps 757 mmHg 64%
06:00 +7°C° 0 mm 0 mps 757 mmHg 62%
07:00 +8°C° 0 mm 0 mps 757 mmHg 60%
08:00 +11°C° 0 mm 1 mps 757 mmHg 54%
09:00 +13°C° 0 mm 1 mps 757 mmHg 49%
10:00 +15°C° 0 mm 1 mps 756 mmHg 43%
11:00 +16°C° 0 mm 2 mps 755 mmHg 43%
12:00 +17°C° 0 mm 3 mps 755 mmHg 44%
13:00 +18°C° 0 mm 4 mps 754 mmHg 44%
14:00 +17°C° 0 mm 4 mps 754 mmHg 53%
15:00 +14°C° 0 mm 4 mps 753 mmHg 61%
16:00 +13°C° 0 mm 4 mps 753 mmHg 70%
17:00 +12°C° 0.4 mm 3 mps 753 mmHg 78%
18:00 +11°C° 0.4 mm 3 mps 752 mmHg 86%
19:00 +10°C° 0.4 mm 2 mps 752 mmHg 94%
20:00 +10°C° 2.6 mm 2 mps 751 mmHg 95%
21:00 +10°C° 2.6 mm 2 mps 750 mmHg 97%
22:00 +10°C° 2.6 mm 2 mps 749 mmHg 98%
23:00 +10°C° 4.3 mm 3 mps 749 mmHg 98%

Day after tomorrow, 25 April, Sunday

Time Temperature Precipitation Wind Pressure Humidity
00:00 +10°C° 4.3 mm 3 mps 748 mmHg 98%
01:00 +10°C° 4.3 mm 4 mps 748 mmHg 98%
02:00 +10°C° 0.9 mm 4 mps 748 mmHg 97%
03:00 +10°C° 0.9 mm 4 mps 748 mmHg 97%
04:00 +10°C° 0.9 mm 4 mps 748 mmHg 96%
05:00 +10°C° 0 mm 4 mps 748 mmHg 94%
06:00 +10°C° 0 mm 4 mps 749 mmHg 93%
07:00 +11°C° 0 mm 3 mps 749 mmHg 91%
08:00 +12°C° 0 mm 4 mps 749 mmHg 84%
09:00 +14°C° 0 mm 5 mps 750 mmHg 76%
10:00 +15°C° 0 mm 6 mps 750 mmHg 69%
11:00 +16°C° 0 mm 6 mps 750 mmHg 64%
12:00 +17°C° 0 mm 6 mps 750 mmHg 59%
13:00 +17°C° 0 mm 6 mps 750 mmHg 54%
14:00 +17°C° 0 mm 5 mps 751 mmHg 53%
15:00 +19°C° 0 mm 5 mps 751 mmHg 53%
16:00 +19°C° 0 mm 5 mps 751 mmHg 52%
17:00 +16°C° 0 mm 5 mps 751 mmHg 54%
18:00 +14°C° 0 mm 5 mps 752 mmHg 56%
19:00 +13°C° 0 mm 5 mps 753 mmHg 58%
20:00 +10°C° 0 mm 5 mps 754 mmHg 61%
21:00 +8°C° 0 mm 5 mps 755 mmHg 65%
22:00 +6°C° 0 mm 5 mps 756 mmHg 68%
23:00 +5°C° 0 mm 5 mps 756 mmHg 68%

26 April, Monday

Time Temperature Precipitation Wind Pressure Humidity
00:00 +3°C° 0 mm 5 mps 757 mmHg 67%
01:00 +3°C° 0 mm 4 mps 757 mmHg 67%
02:00 +3°C° 0 mm 4 mps 758 mmHg 66%
03:00 +3°C° 0 mm 4 mps 758 mmHg 65%
04:00 +3°C° 0 mm 4 mps 758 mmHg 63%
05:00 +3°C° 0 mm 4 mps 759 mmHg 61%
06:00 +4°C° 0 mm 4 mps 759 mmHg 59%
07:00 +4°C° 0 mm 4 mps 760 mmHg 57%
08:00 +6°C° 0 mm 4 mps 760 mmHg 52%
09:00 +8°C° 0 mm 4 mps 760 mmHg 46%
10:00 +11°C° 0 mm 4 mps 760 mmHg 41%
11:00 +12°C° 0 mm 4 mps 759 mmHg 39%
12:00 +14°C° 0 mm 4 mps 759 mmHg 37%
13:00 +15°C° 0 mm 4 mps 758 mmHg 34%
14:00 +17°C° 0 mm 3 mps 758 mmHg 34%
15:00 +17°C° 0 mm 3 mps 758 mmHg 34%
16:00 +18°C° 0 mm 3 mps 757 mmHg 34%
17:00 +16°C° 0 mm 2 mps 757 mmHg 42%
18:00 +14°C° 0 mm 1 mps 758 mmHg 49%
19:00 +12°C° 0 mm 1 mps 758 mmHg 56%
20:00 +12°C° 0 mm 1 mps 758 mmHg 57%
21:00 +11°C° 0 mm 1 mps 758 mmHg 58%
22:00 +10°C° 0 mm 1 mps 759 mmHg 59%
23:00 +10°C° 0 mm 1 mps 759 mmHg 60%

27 April, Tuesday

Time Temperature Precipitation Wind Pressure Humidity
00:00 +9°C° 0 mm 1 mps 759 mmHg 61%
01:00 +9°C° 0 mm 1 mps 759 mmHg 62%
02:00 +7°C° 0 mm 0 mps 759 mmHg 63%
03:00 +7°C° 0 mm 0 mps 759 mmHg 65%
04:00 +6°C° 0 mm 0 mps 759 mmHg 66%
05:00 +7°C° 0 mm 0 mps 759 mmHg 65%
06:00 +8°C° 0 mm 0 mps 759 mmHg 63%
07:00 +10°C° 0 mm 0 mps 759 mmHg 61%
08:00 +12°C° 0 mm 0 mps 759 mmHg 57%
09:00 +15°C° 0 mm 1 mps 759 mmHg 53%
10:00 +19°C° 0 mm 1 mps 759 mmHg 49%
11:00 +21°C° 0 mm 1 mps 758 mmHg 47%
12:00 +23°C° 0 mm 1 mps 757 mmHg 46%
13:00 +24°C° 0 mm 1 mps 757 mmHg 44%
14:00 +25°C° 0 mm 2 mps 756 mmHg 46%
15:00 +25°C° 0 mm 2 mps 756 mmHg 48%
16:00 +25°C° 0 mm 2 mps 755 mmHg 50%
17:00 +24°C° 0 mm 2 mps 755 mmHg 57%
18:00 +21°C° 0 mm 2 mps 755 mmHg 65%
19:00 +19°C° 0 mm 2 mps 755 mmHg 72%
20:00 +18°C° 0 mm 2 mps 755 mmHg 76%
21:00 +18°C° 0 mm 2 mps 755 mmHg 80%
22:00 +17°C° 0 mm 2 mps 754 mmHg 84%
23:00 +16°C° 0 mm 1 mps 754 mmHg 85%

28 April, Wednesday

Time Temperature Precipitation Wind Pressure Humidity
00:00 +16°C° 0 mm 1 mps 754 mmHg 87%
01:00 +16°C° 0 mm 1 mps 754 mmHg 89%
02:00 +16°C° 0 mm 1 mps 754 mmHg 88%
03:00 +16°C° 0 mm 1 mps 754 mmHg 87%
04:00 +16°C° 0 mm 1 mps 754 mmHg 87%
05:00 +18°C° 0 mm 1 mps 754 mmHg 83%
06:00 +19°C° 0 mm 1 mps 754 mmHg 80%
07:00 +21°C° 0 mm 1 mps 754 mmHg 76%
08:00 +23°C° 0 mm 1 mps 754 mmHg 69%
09:00 +26°C° 0 mm 1 mps 754 mmHg 62%
10:00 +28°C° 0 mm 1 mps 754 mmHg 55%
11:00 +29°C° 0 mm 2 mps 754 mmHg 53%
12:00 +30°C° 0 mm 2 mps 753 mmHg 51%
13:00 +30°C° 0 mm 2 mps 753 mmHg 49%
14:00 +29°C° 0.1 mm 2 mps 753 mmHg 53%
15:00 +29°C° 0.1 mm 3 mps 752 mmHg 57%
16:00 +28°C° 0.1 mm 3 mps 752 mmHg 61%
17:00 +26°C° 1.3 mm 2 mps 752 mmHg 72%
18:00 +24°C° 1.3 mm 2 mps 753 mmHg 83%
19:00 +21°C° 1.3 mm 2 mps 753 mmHg 95%
20:00 +20°C° 0.7 mm 2 mps 753 mmHg 95%
21:00 +20°C° 0.7 mm 2 mps 753 mmHg 95%
22:00 +21°C° 0.7 mm 1 mps 753 mmHg 96%
23:00 +21°C° 0 mm 1 mps 753 mmHg 96%
Show more